• în România
  • Lista ţărilor
  • Pe 7 zile
  • Temperatura apei
  • Hartă satelitară
  • Meteo pe hartă
  • Widget-uri
  • user-avatar
    Intrare

    Meteo pe oră la Tirana

    Astăzi, 21 Ianuarie, Duminică

    Timp Temperatura Precipitaţii Vânt Presiune Umiditate
    00:00 +7°C° 0 mm 2 m/s 751 mmHg 91%
    01:00 +7°C° 0 mm 2 m/s 750 mmHg 90%
    02:00 +7°C° 0 mm 3 m/s 750 mmHg 89%
    03:00 +7°C° 0 mm 3 m/s 750 mmHg 87%
    04:00 +6°C° 0 mm 4 m/s 749 mmHg 85%
    05:00 +6°C° 0,2 mm 4 m/s 749 mmHg 85%
    06:00 +6°C° 0,2 mm 4 m/s 748 mmHg 84%
    07:00 +6°C° 0 mm 5 m/s 748 mmHg 80%
    08:00 +7°C° 0,3 mm 5 m/s 747 mmHg 80%
    09:00 +8°C° 0,3 mm 6 m/s 747 mmHg 80%
    10:00 +9°C° 0,3 mm 6 m/s 746 mmHg 79%
    11:00 +9°C° 0,5 mm 6 m/s 746 mmHg 80%
    12:00 +9°C° 0,5 mm 7 m/s 745 mmHg 81%
    13:00 +9°C° 0,5 mm 7 m/s 744 mmHg 81%
    14:00 +9°C° 1,3 mm 7 m/s 744 mmHg 85%
    15:00 +9°C° 1,3 mm 7 m/s 744 mmHg 89%
    16:00 +8°C° 1,3 mm 7 m/s 743 mmHg 92%
    17:00 +8°C° 1,5 mm 6 m/s 743 mmHg 93%
    18:00 +8°C° 1,5 mm 6 m/s 743 mmHg 93%
    19:00 +8°C° 1,5 mm 6 m/s 743 mmHg 93%
    20:00 +8°C° 0,2 mm 5 m/s 744 mmHg 93%
    21:00 +7°C° 0,2 mm 5 m/s 744 mmHg 93%
    22:00 +7°C° 0,2 mm 5 m/s 745 mmHg 93%
    23:00 +7°C° 0,1 mm 5 m/s 745 mmHg 92%

    Mâine, 22 Ianuarie, Luni

    Timp Temperatura Precipitaţii Vânt Presiune Umiditate
    00:00 +5°C° 0,1 mm 6 m/s 746 mmHg 90%
    01:00 +4°C° 0,1 mm 6 m/s 746 mmHg 89%
    02:00 +4°C° 0 mm 7 m/s 747 mmHg 87%
    03:00 +3°C° 0 mm 7 m/s 747 mmHg 84%
    04:00 +2°C° 0 mm 7 m/s 748 mmHg 82%
    05:00 +2°C° 0 mm 7 m/s 748 mmHg 80%
    06:00 +2°C° 0 mm 7 m/s 749 mmHg 78%
    07:00 0°C° 0 mm 7 m/s 749 mmHg 76%
    08:00 +2°C° 0 mm 7 m/s 750 mmHg 69%
    09:00 +4°C° 0 mm 7 m/s 750 mmHg 62%
    10:00 +5°C° 0 mm 6 m/s 751 mmHg 55%
    11:00 +5°C° 0 mm 6 m/s 751 mmHg 53%
    12:00 +7°C° 0 mm 6 m/s 751 mmHg 51%
    13:00 +7°C° 0 mm 6 m/s 751 mmHg 49%
    14:00 +7°C° 0 mm 6 m/s 751 mmHg 53%
    15:00 +6°C° 0 mm 5 m/s 752 mmHg 56%
    16:00 +6°C° 0 mm 5 m/s 752 mmHg 60%
    17:00 +5°C° 0 mm 4 m/s 753 mmHg 63%
    18:00 +4°C° 0 mm 4 m/s 753 mmHg 65%
    19:00 +3°C° 0 mm 4 m/s 754 mmHg 68%
    20:00 +3°C° 0 mm 3 m/s 754 mmHg 67%
    21:00 +3°C° 0 mm 3 m/s 754 mmHg 67%
    22:00 +2°C° 0 mm 3 m/s 754 mmHg 66%
    23:00 +2°C° 0 mm 3 m/s 755 mmHg 66%

    Poimâine, 23 Ianuarie, Marţi

    Timp Temperatura Precipitaţii Vânt Presiune Umiditate
    00:00 +2°C° 0 mm 3 m/s 755 mmHg 66%
    01:00 +2°C° 0 mm 3 m/s 755 mmHg 66%
    02:00 +2°C° 0 mm 3 m/s 755 mmHg 66%
    03:00 +2°C° 0 mm 3 m/s 755 mmHg 66%
    04:00 +2°C° 0 mm 3 m/s 755 mmHg 66%
    05:00 +3°C° 0 mm 3 m/s 755 mmHg 65%
    06:00 +3°C° 0 mm 3 m/s 756 mmHg 64%
    07:00 +3°C° 0 mm 3 m/s 756 mmHg 64%
    08:00 +4°C° 0 mm 3 m/s 757 mmHg 59%
    09:00 +7°C° 0 mm 3 m/s 757 mmHg 55%
    10:00 +8°C° 0 mm 3 m/s 758 mmHg 50%
    11:00 +9°C° 0 mm 3 m/s 757 mmHg 47%
    12:00 +10°C° 0 mm 3 m/s 757 mmHg 44%
    13:00 +11°C° 0 mm 3 m/s 757 mmHg 41%
    14:00 +10°C° 0 mm 3 m/s 757 mmHg 45%
    15:00 +9°C° 0 mm 3 m/s 758 mmHg 50%
    16:00 +9°C° 0 mm 3 m/s 758 mmHg 55%
    17:00 +7°C° 0 mm 4 m/s 758 mmHg 57%
    18:00 +5°C° 0 mm 4 m/s 759 mmHg 59%
    19:00 +4°C° 0 mm 4 m/s 760 mmHg 61%
    20:00 +3°C° 0 mm 5 m/s 760 mmHg 61%
    21:00 +3°C° 0 mm 5 m/s 761 mmHg 62%
    22:00 +2°C° 0 mm 5 m/s 761 mmHg 62%
    23:00 +2°C° 0 mm 5 m/s 761 mmHg 62%

    24 Ianuarie, Miercuri

    Timp Temperatura Precipitaţii Vânt Presiune Umiditate
    00:00 +2°C° 0 mm 5 m/s 762 mmHg 63%
    01:00 +2°C° 0 mm 5 m/s 762 mmHg 63%
    02:00 +1°C° 0 mm 5 m/s 762 mmHg 62%
    03:00 +1°C° 0 mm 5 m/s 762 mmHg 62%
    04:00 +1°C° 0 mm 5 m/s 762 mmHg 61%
    05:00 +1°C° 0 mm 5 m/s 763 mmHg 60%
    06:00 +1°C° 0 mm 4 m/s 763 mmHg 59%
    07:00 +1°C° 0 mm 4 m/s 764 mmHg 57%
    08:00 +3°C° 0 mm 4 m/s 764 mmHg 52%
    09:00 +5°C° 0 mm 4 m/s 764 mmHg 47%
    10:00 +7°C° 0 mm 4 m/s 765 mmHg 43%
    11:00 +8°C° 0 mm 3 m/s 764 mmHg 40%
    12:00 +9°C° 0 mm 3 m/s 764 mmHg 38%
    13:00 +10°C° 0 mm 3 m/s 764 mmHg 36%
    14:00 +10°C° 0 mm 3 m/s 764 mmHg 41%
    15:00 +9°C° 0 mm 2 m/s 764 mmHg 46%
    16:00 +9°C° 0 mm 2 m/s 764 mmHg 50%
    17:00 +7°C° 0 mm 2 m/s 764 mmHg 53%
    18:00 +5°C° 0 mm 3 m/s 765 mmHg 55%
    19:00 +4°C° 0 mm 3 m/s 765 mmHg 57%
    20:00 +3°C° 0 mm 3 m/s 765 mmHg 58%
    21:00 +3°C° 0 mm 3 m/s 765 mmHg 58%
    22:00 +3°C° 0 mm 3 m/s 765 mmHg 59%
    23:00 +4°C° 0 mm 2 m/s 765 mmHg 58%

    25 Ianuarie, Joi

    Timp Temperatura Precipitaţii Vânt Presiune Umiditate
    00:00 +4°C° 0 mm 2 m/s 765 mmHg 58%
    01:00 +3°C° 0 mm 2 m/s 765 mmHg 57%
    02:00 +3°C° 0 mm 2 m/s 765 mmHg 55%
    03:00 +3°C° 0 mm 2 m/s 764 mmHg 54%
    04:00 +3°C° 0 mm 2 m/s 764 mmHg 52%
    05:00 +3°C° 0 mm 2 m/s 764 mmHg 51%
    06:00 +4°C° 0 mm 2 m/s 764 mmHg 49%
    07:00 +4°C° 0 mm 2 m/s 764 mmHg 47%
    08:00 +5°C° 0 mm 2 m/s 764 mmHg 43%
    09:00 +8°C° 0 mm 1 m/s 764 mmHg 38%
    10:00 +10°C° 0 mm 1 m/s 764 mmHg 34%
    11:00 +11°C° 0 mm 1 m/s 763 mmHg 34%
    12:00 +12°C° 0 mm 1 m/s 763 mmHg 33%
    13:00 +13°C° 0 mm 1 m/s 762 mmHg 33%
    14:00 +12°C° 0 mm 1 m/s 762 mmHg 39%
    15:00 +11°C° 0 mm 1 m/s 762 mmHg 45%
    16:00 +10°C° 0 mm 1 m/s 762 mmHg 51%
    17:00 +9°C° 0 mm 1 m/s 762 mmHg 53%
    18:00 +8°C° 0 mm 1 m/s 762 mmHg 54%
    19:00 +7°C° 0 mm 1 m/s 762 mmHg 55%
    20:00 +7°C° 0 mm 1 m/s 762 mmHg 55%
    21:00 +7°C° 0 mm 1 m/s 762 mmHg 54%
    22:00 +7°C° 0 mm 1 m/s 762 mmHg 54%
    23:00 +6°C° 0 mm 1 m/s 761 mmHg 53%

    26 Ianuarie, Vineri

    Timp Temperatura Precipitaţii Vânt Presiune Umiditate
    00:00 +6°C° 0 mm 1 m/s 761 mmHg 52%
    01:00 +5°C° 0 mm 2 m/s 761 mmHg 51%
    02:00 +5°C° 0 mm 2 m/s 760 mmHg 50%
    03:00 +5°C° 0 mm 2 m/s 760 mmHg 49%
    04:00 +5°C° 0 mm 2 m/s 760 mmHg 48%
    05:00 +5°C° 0 mm 2 m/s 760 mmHg 47%
    06:00 +5°C° 0 mm 2 m/s 760 mmHg 46%
    07:00 +5°C° 0 mm 2 m/s 760 mmHg 45%
    08:00 +7°C° 0 mm 2 m/s 760 mmHg 41%
    09:00 +8°C° 0 mm 2 m/s 759 mmHg 38%
    10:00 +10°C° 0 mm 2 m/s 759 mmHg 34%
    11:00 +12°C° 0 mm 2 m/s 759 mmHg 34%
    12:00 +12°C° 0 mm 2 m/s 758 mmHg 34%
    13:00 +13°C° 0 mm 2 m/s 758 mmHg 34%
    14:00 +12°C° 0 mm 2 m/s 758 mmHg 40%
    15:00 +12°C° 0 mm 2 m/s 758 mmHg 45%
    16:00 +10°C° 0 mm 2 m/s 758 mmHg 51%
    17:00 +9°C° 0 mm 2 m/s 758 mmHg 52%
    18:00 +8°C° 0 mm 2 m/s 758 mmHg 53%
    19:00 +7°C° 0 mm 3 m/s 758 mmHg 54%
    20:00 +7°C° 0 mm 3 m/s 758 mmHg 54%
    21:00 +5°C° 0 mm 3 m/s 759 mmHg 54%
    22:00 +5°C° 0 mm 3 m/s 759 mmHg 54%
    23:00 +5°C° 0 mm 4 m/s 759 mmHg 54%
    Arată mai mult